Tracking 29747 objects as of 9-Oct-2024
HD Live streaming from Space Station
objects crossing your sky now

ONEWEB-0208

Track ONEWEB-0208 now!
10-day predictions
ONEWEB-0208 is classified as:


NORAD ID: 48243
Int'l Code: 2021-031AK
Perigee: 1,211.6 km
Apogee: 1,214.3 km
Inclination: 87.9 °
Period: 109.5 minutes
Semi major axis: 7583 km
RCS: Unknown
Launch date: April 25, 2021
Source: United Kingdom (UK)
Launch site: VOSTOCHNY COSMODROME (VOSTO)
Your satellite tracking list
Your tracking list is empty




NASA's NSSDC Master Catalog

Two Line Element Set (TLE):
1 48243U 21031AK  24282.83427168  .00000116  00000-0  27745-3 0  9991
2 48243  87.8989  52.2637 0001771  92.0868 268.0465 13.14502508167336
Source of the keplerian elements: AFSPC